Location: Lombard
(41.8800°N, 88.0080°W)
Time: 02:55:55
(UTC-05:00)

DX 1 - Pass Details

Date: 15 June 2023
Orbit: 614 x 623 km, 98.3° (Epoch: 29 September)

Event Time Altitude Azimuth Distance (km) Brightness Sun altitude
Rises 22:06:38 0° 38° (NE) 2,908 ? -14.3°
Reaches altitude 10° 22:11:11 10° 83° (E) 1,989 ? -14.9°
Enters shadow 22:11:38 10° 89° (E) 1,977 ? -14.9°
